RH
76 70 67 66 65 61 59 60 59 60 59 61 62 63 60 57 58 60 48 41 36 38 36 33 34 31 29 28 28 28 28 28 29 32 34 32 30 28 29 26 21 19 18
82 79 74 67 64 65 64 63 65 66 64 64 65 62 60 61 60 58 52 47 43 41 43 45 40 37 36 36 35 35 34 34 35 38 41 38 40 39 32 28 25 23 20
89 81 76 71 70 70 68 68 68 68 68 69 67 62 63 62 59 56 52 48 43 43 44 39 37 39 40 41 43 43 42 42 45 47 49 48 48 47 39 36 30 24 22
80 78 77 75 77 75 72 71 75 73 73 67 65 62 61 60 59 55 53 46 43 43 39 42 44 44 44 46 48 53 58 59 57 58 58 58 57 57 48 37 31 30 30
81 78 75 76 82 82 80 77 74 73 72 67 64 62 57 54 53 52 48 43 45 50 53 56 53 51 55 59 62 64 66 67 65 65 64 63 63 60 45 36 35 37 36
91 89 86 84 82 79 80 83 81 78 74 71 67 68 61 54 53 56 57 55 57 56 64 62 64 69 70 71 73 77 79 77 76 73 72 70 67 55 44 39 39 40 39
88 82 82 85 84 83 86 87 86 84 82 77 77 76 71 65 63 65 65 65 65 66 65 67 74 76 77 78 81 79 82 79 82 79 77 70 65 59 47 46 44 43 42
82 85 89 88 90 84 84 89 89 87 90 87 87 90 86 78 72 70 71 73 74 72 73 74 73 75 77 83 80 77 76 77 74 73 71 64 61 52 48 47 48 48 47
91 91 92 90 88 84 89 89 89 88 89 92 92 93 92 87 82 86 79 81 85 80 80 80 78 79 80 80 84 85 75 65 64 62 58 54 53 54 53 51 50 49 49
92 93 94 92 87 89 86 87 88 87 87 87 89 91 92 92 92 92 80 78 84 81 82 83 82 81 81 83 81 74 72 61 57 55 53 50 52 52 52 54 58 55 54
93 94 90 91 88 87 86 86 86 83 81 80 79 83 86 91 96 91 80 81 79 79 83 86 85 74 65 71 66 66 69 71 58 55 55 54 56 52 52 52 53 55 53
90 92 92 91 90 90 88 85 85 80 80 80 86 86 81 87 94 92 84 83 88 92 92 93 88 72 65 65 64 71 76 68 57 56 56 56 57 54 50 49 47 43 42
79 82 85 84 83 85 85 85 89 88 78 78 79 80 81 87 93 88 91 88 92 97 89 88 91 68 58 52 58 70 63 52 54 60 59 59 56 52 46 40 39 38 39
67 72 74 75 78 83 86 87 91 93 85 76 76 74 73 79 85 80 83 93 99 89 86 89 87 69 51 54 48 48 51 52 55 55 57 57 53 37 30 32 33 36 37
59 63 67 68 73 74 79 82 84 79 76 77 77 74 71 75 84 86 90 91 98 94 88 84 83 59 60 56 53 55 57 57 58 55 54 55 37 28 30 33 36 37 39
59 60 63 65 67 71 76 77 76 76 76 78 73 71 73 77 82 90 95 97 96 89 89 85 75 72 60 58 55 60 62 59 58 57 56 38 31 31 33 37 40 40 39
67 67 68 71 74 77 76 74 74 77 78 76 76 79 79 83 91 94 94 95 96 93 88 89 83 68 60 61 58 63 68 67 63 54 40 33 31 35 39 41 42 42 43
67 70 73 74 73 78 81 79 79 80 86 84 87 87 87 95 95 98 97 97 92 94 89 78 74 71 61 63 63 63 65 66 58 45 37 33 36 43 45 46 47 50 50
67 70 68 71 72 69 74 80 78 73 75 77 85 83 94 99 96 95 96 97 97 90 88 84 77 72 62 70 71 66 64 56 51 41 36 38 43 45 48 51 55 55 51
62 63 60 63 71 69 72 72 77 82 84 84 79 78 86 94 94 97 94 89 90 82 94 87 76 71 67 66 68 65 59 52 47 38 37 43 44 48 55 61 59 55 52
62 60 59 63 66 66 63 70 78 90 90 85 87 86 84 83 83 81 83 89 81 90 99 91 76 71 68 65 64 57 53 46 40 36 40 45 49 57 64 63 62 59 52
59 63 60 63 64 63 63 71 76 84 85 86 86 84 86 88 84 82 89 90 88 86 81 75 72 70 70 65 60 52 53 48 49 48 49 53 60 68 69 67 64 58 49
60 62 63 67 69 66 69 73 77 78 77 77 81 86 90 88 88 86 87 94 91 91 85 74 76 75 69 64 59 60 59 57 54 55 60 66 75 72 70 72 67 59 49
50 58 69 73 72 68 69 76 79 79 80 80 83 86 87 85 85 88 95 98 97 96 81 78 75 73 71 67 65 60 58 54 58 62 75 73 74 71 72 74 68 61 54
45 50 56 69 73 71 71 72 76 78 78 79 80 82 83 86 88 93 95 98 96 91 82 76 76 73 70 67 63 62 58 63 73 78 77 77 78 76 72 71 70 66 57
56 53 53 58 64 66 67 67 70 72 76 77 78 79 80 85 94 99 98 99 93 79 74 77 72 68 66 68 64 61 62 70 80 81 82 79 82 82 71 71 71 64 64